Theta_e
328 328 328 329 328 325 326 325 322 324 326 326 323 321 321 321 320 322 319 317 321 325 328 331 332 332 332 333 335 336 341 348 347 346 349 350 351 352 353 353 354 355 354 354 354 353 354 356 357 358 358 357 357 356 356 355 354 353 352 350 348 344 340
328 328 328 329 330 328 325 321 323 327 326 326 326 323 321 321 319 320 319 318 319 318 321 329 331 331 331 332 334 335 339 344 346 346 348 349 349 350 351 352 352 354 354 354 353 353 354 355 356 358 358 358 358 357 356 356 355 354 352 350 349 346 342
328 329 329 327 329 330 327 324 327 326 321 320 322 321 321 322 319 319 319 318 319 318 320 326 329 330 331 332 333 334 338 342 343 346 348 348 349 350 350 352 352 354 354 354 354 354 354 354 355 356 357 358 358 357 357 357 356 355 353 351 349 348 346
328 328 328 323 324 329 330 327 327 326 322 321 323 321 320 322 322 321 320 319 320 323 326 326 328 330 331 333 334 333 336 342 343 343 347 348 348 350 350 350 351 352 353 354 354 354 354 354 354 355 357 358 359 358 358 358 357 356 354 352 351 349 348
326 325 327 326 325 327 327 325 323 322 323 324 324 322 320 322 323 324 323 321 324 332 333 328 329 332 332 334 338 336 334 342 346 343 344 348 349 349 350 350 350 349 350 352 353 353 354 354 354 355 356 358 359 359 359 358 358 357 356 354 352 351 349
322 324 329 330 329 328 327 326 322 321 322 321 320 320 321 319 320 324 326 324 330 342 336 330 330 332 332 334 341 341 335 339 347 345 342 346 348 348 349 349 349 348 349 350 350 351 352 354 355 355 356 358 359 360 360 359 359 359 358 356 354 352 350
324 327 330 330 329 330 329 328 327 326 323 320 318 320 323 320 319 322 323 321 333 347 342 334 332 333 333 332 337 342 335 335 345 346 342 345 347 346 347 347 348 348 348 348 349 349 350 353 356 358 359 360 360 360 360 359 360 359 358 357 355 352 351
328 329 330 330 330 331 328 327 329 327 324 323 323 327 329 323 319 321 320 319 333 350 345 337 334 334 334 332 334 337 333 334 345 346 341 343 345 345 346 347 348 349 349 350 350 350 351 352 355 357 360 361 361 361 361 360 360 360 359 358 356 354 351
325 327 328 327 328 329 327 328 329 327 329 326 325 330 331 325 321 322 320 320 333 351 351 341 337 336 335 334 333 333 333 336 344 345 342 342 344 346 347 347 348 349 350 351 350 350 351 352 354 355 358 361 362 362 362 361 361 361 360 359 358 356 353
325 327 327 324 325 327 327 328 328 328 329 326 325 326 325 326 327 324 321 323 332 345 349 343 339 338 337 336 335 334 336 339 344 345 343 342 343 347 348 348 349 349 349 349 348 349 352 355 357 357 357 360 362 362 362 362 362 362 361 360 359 358 356
330 333 337 334 327 326 324 326 326 327 328 327 327 324 323 332 333 326 330 335 332 335 341 340 340 339 341 343 345 346 346 346 345 344 343 342 343 348 349 349 349 348 348 348 348 349 353 357 359 358 357 359 362 363 362 361 362 363 363 363 362 360 359
332 334 338 336 329 326 323 325 325 326 327 328 326 321 328 343 333 323 337 347 335 334 341 343 343 342 345 347 348 347 347 348 346 344 344 342 343 347 348 347 348 349 349 350 351 352 355 359 360 358 357 358 360 362 362 361 362 363 364 365 364 363 362
329 331 332 332 332 330 327 327 326 325 326 326 324 323 333 345 335 329 345 350 339 338 341 342 343 342 342 343 343 343 345 347 347 344 343 343 343 345 346 346 348 349 351 353 353 354 356 357 359 357 355 356 360 362 362 363 362 363 365 366 365 365 364
329 331 332 332 331 331 330 329 327 328 327 325 326 327 332 341 339 340 352 352 344 338 336 338 339 337 336 338 338 341 343 345 346 345 345 346 346 347 346 345 346 347 349 351 350 350 352 352 352 353 354 357 361 363 363 363 363 363 364 365 366 366 365
332 333 332 332 331 330 330 330 330 331 329 326 326 327 329 336 337 339 348 348 341 336 336 337 335 333 335 336 337 339 339 339 342 344 345 348 348 348 348 347 347 347 346 346 346 347 349 348 350 354 358 360 361 363 364 364 364 363 363 365 365 366 366
336 335 331 330 329 328 328 329 331 332 329 326 325 326 328 334 336 337 340 338 337 337 337 337 336 334 337 338 336 335 335 334 336 341 345 349 349 349 349 349 348 348 348 347 347 347 347 348 351 358 362 364 364 363 364 364 364 364 363 364 365 365 366
332 330 327 328 328 327 329 330 331 332 332 331 327 326 329 334 338 340 339 338 341 342 338 337 337 337 340 341 336 333 334 334 335 337 341 346 348 347 348 350 349 348 347 347 346 346 347 349 353 359 361 362 363 364 364 364 364 364 364 364 363 364 365
325 324 327 331 328 326 331 333 333 332 332 331 330 329 329 329 333 340 342 344 343 341 340 341 340 337 338 337 335 335 335 335 340 343 341 342 345 348 349 351 354 354 352 353 353 354 357 357 358 361 362 361 362 362 362 364 364 364 364 363 363 363 363
323 326 332 333 328 329 333 333 333 333 331 330 332 336 340 339 338 339 339 341 342 341 341 341 338 336 336 338 343 347 344 343 349 351 350 350 352 355 354 352 355 357 356 357 359 359 360 360 359 359 360 360 360 361 361 363 363 363 364 363 363 363 363
325 330 333 331 329 332 333 333 332 331 333 333 334 338 340 341 341 342 340 338 340 340 338 338 337 337 339 344 351 354 352 352 354 353 355 360 360 360 359 356 353 353 352 351 353 355 356 354 352 352 352 352 354 357 358 360 361 362 362 362 363 362 363
325 326 327 326 328 332 333 332 330 328 330 333 335 339 339 340 340 343 343 339 337 336 336 337 338 341 345 348 350 350 352 353 354 353 355 360 361 360 360 359 355 352 349 346 344 346 350 351 350 350 350 350 352 353 354 355 356 358 360 361 362 362 362
322 325 327 326 327 331 330 327 327 328 329 330 334 341 340 339 339 343 344 343 341 339 339 339 340 345 350 351 349 349 350 351 351 353 353 354 357 358 357 355 352 349 345 342 340 339 339 339 341 344 348 351 354 355 356 355 352 352 354 357 359 360 361
320 326 330 328 327 330 329 325 326 329 331 332 334 343 341 338 339 342 344 343 344 344 344 343 344 347 351 353 350 347 348 350 350 352 352 351 352 353 352 351 350 348 346 348 350 348 345 342 341 341 342 347 351 353 355 358 356 352 350 352 354 357 358
321 324 327 327 327 328 325 324 327 329 330 331 338 347 342 337 337 341 342 342 343 344 343 343 344 347 350 350 349 347 348 350 350 352 354 353 351 350 351 353 351 348 351 354 352 350 354 358 357 353 347 346 349 353 353 355 358 358 354 351 351 352 355
319 321 323 324 327 326 322 323 327 328 330 337 345 345 340 335 336 339 339 340 342 342 342 343 344 345 346 346 346 348 349 349 350 351 353 353 351 351 354 357 355 352 352 351 344 342 346 348 348 352 351 347 347 350 351 351 354 358 358 356 354 352 352
317 320 321 324 328 327 322 324 326 326 334 342 342 338 334 332 335 338 336 338 340 340 341 342 342 343 343 344 345 346 347 348 349 349 350 350 350 349 352 356 357 354 352 348 343 345 343 337 338 347 353 352 348 345 346 347 349 353 356 358 357 355 354
317 318 320 327 331 326 321 323 326 327 332 336 334 331 330 330 332 334 334 335 337 339 340 341 342 343 342 343 344 343 344 347 348 348 349 351 352 351 352 355 355 355 355 354 353 353 351 345 342 344 349 356 358 353 347 344 344 348 354 357 358 358 357
319 321 324 329 330 323 319 323 325 324 326 329 329 328 329 328 327 329 331 331 332 336 338 339 340 342 342 343 344 343 343 345 346 347 347 349 351 352 352 354 355 355 357 359 357 356 355 351 347 348 356 364 366 362 356 351 348 350 353 356 359 359 358
321 322 323 323 322 320 319 321 321 321 321 323 326 327 326 325 326 327 328 328 329 332 334 336 337 339 340 343 344 343 343 343 344 345 346 347 349 351 352 352 352 352 356 358 357 356 355 353 353 357 363 368 368 365 363 359 356 356 356 356 358 360 360
319 319 319 319 319 318 318 318 319 319 319 321 324 325 324 323 324 325 325 326 327 329 331 333 335 336 338 341 342 343 344 343 342 343 344 345 348 350 352 353 351 350 353 356 356 355 354 354 357 359 362 366 367 366 366 365 362 359 357 357 358 360 362
317 318 319 319 318 316 316 316 317 317 318 321 322 323 322 322 323 323 324 324 325 326 328 329 331 333 335 337 339 342 344 344 344 343 342 343 345 349 352 353 351 350 351 354 355 354 352 353 357 358 359 362 364 364 365 367 366 362 359 360 361 363 364
316 317 317 316 316 316 316 316 316 317 318 321 321 321 321 322 322 322 322 322 324 325 326 325 327 330 332 334 335 338 341 343 344 344 343 342 344 348 351 352 351 349 349 351 354 353 351 352 354 354 355 357 359 359 359 360 361 362 363 364 365 366 365
315 316 316 316 316 317 316 316 316 317 317 318 319 319 320 321 321 321 321 321 322 324 324 324 324 326 329 330 332 334 338 340 343 345 345 343 344 348 352 352 351 350 348 349 352 351 350 352 354 354 355 356 357 358 358 358 359 361 363 365 367 368 367
315 316 316 316 316 315 315 315 316 315 316 316 317 318 318 319 320 321 320 320 320 321 321 321 322 323 326 328 329 330 332 336 341 344 345 344 345 349 351 351 351 350 348 348 348 348 350 352 353 354 355 355 355 357 359 362 363 361 361 364 366 366 366
315 315 315 315 315 315 315 315 315 315 315 315 316 317 317 318 319 319 320 320 319 319 320 320 321 322 323 324 325 325 327 332 338 343 345 345 345 346 349 351 352 350 349 348 347 348 351 351 351 352 353 353 354 356 359 362 364 361 360 363 366 365 363
314 314 314 314 314 315 315 315 315 315 314 314 315 316 317 318 318 318 318 318 318 319 321 321 321 321 320 319 319 322 325 328 333 339 344 345 344 345 346 350 352 351 350 350 349 349 350 350 350 350 350 350 353 355 356 359 361 362 363 366 368 366 364
312 312 313 313 313 314 314 314 314 314 315 315 315 315 316 316 316 316 317 318 319 320 321 321 320 319 318 317 317 320 323 325 329 336 341 343 345 345 345 348 351 351 351 351 350 349 350 350 349 349 349 350 350 351 353 356 358 359 361 364 366 365 363
Wind_Speed
15 17 15 13 11 6 6 9 9 6 6 4 3 2 3 2 3 4 5 6 4 4 5 7 11 14 13 11 12 13 28 43 41 37 41 44 44 45 46 46 46 47 49 49 50 50 48 48 49 49 47 47 47 47 47 48 48 49 51 51 52 50 48
19 18 17 15 14 8 7 9 8 5 5 6 2 2 3 4 4 4 7 9 7 6 6 7 12 16 16 14 12 10 20 35 37 37 42 44 44 45 46 46 46 46 47 49 51 52 52 52 52 51 47 45 46 46 46 47 47 49 51 51 52 52 50
17 16 16 13 15 14 8 8 9 6 6 6 4 3 3 6 5 4 8 10 8 8 8 9 13 16 16 15 16 14 14 21 28 35 41 42 42 44 44 45 45 45 46 49 50 52 53 52 51 50 47 45 45 46 46 46 47 48 50 51 51 52 51
15 11 11 11 12 14 10 8 10 8 5 4 5 4 2 4 4 4 7 8 7 7 10 14 15 15 14 13 14 16 14 19 27 32 37 41 41 42 43 44 46 46 46 48 50 51 50 49 48 47 46 46 47 47 46 45 46 47 49 51 51 51 51
15 10 10 12 12 12 10 8 9 9 6 4 4 4 3 3 3 3 5 5 5 6 8 15 17 15 15 12 11 13 14 23 33 36 39 43 44 44 45 46 47 47 47 47 48 48 47 47 46 46 46 47 47 48 47 46 46 47 49 50 51 52 51
12 12 12 13 15 13 11 7 7 10 8 5 6 6 5 5 3 3 4 4 6 5 4 12 17 14 14 13 10 9 13 25 36 40 41 43 45 46 47 48 48 47 47 47 47 47 46 45 46 47 47 48 48 48 47 47 47 48 49 51 52 52 52
8 13 16 16 17 16 13 9 7 9 10 7 6 5 6 6 5 5 3 3 6 7 6 10 16 12 11 14 11 8 12 24 36 40 41 42 45 47 47 47 48 47 48 48 47 46 46 45 46 46 47 48 48 48 47 46 48 49 49 50 51 52 52
8 8 12 17 17 15 12 11 9 7 10 10 6 4 5 5 5 6 3 3 5 8 7 4 12 12 12 12 13 11 11 22 37 42 40 40 43 48 49 46 46 47 46 47 47 46 46 47 48 47 47 46 45 45 45 46 48 49 49 50 50 51 52
6 6 7 13 15 14 9 10 12 10 10 14 9 4 4 5 6 7 3 3 5 7 7 7 9 11 13 10 13 15 14 22 38 43 43 42 42 47 49 45 44 44 42 43 44 44 44 45 47 48 47 45 43 42 43 44 46 47 48 49 50 50 51
4 4 5 8 11 11 7 9 15 14 12 15 12 5 3 4 7 8 5 3 5 6 6 7 7 8 10 8 10 13 14 23 34 39 44 47 45 46 48 46 44 43 41 41 41 41 41 42 43 45 45 44 42 41 42 42 43 44 46 48 49 50 51
4 5 5 7 13 13 9 11 15 17 16 13 11 7 4 5 6 6 6 5 4 5 3 3 3 4 6 6 6 7 12 20 28 35 40 44 45 47 48 47 46 45 44 45 44 42 43 43 43 43 42 43 43 42 42 42 41 41 43 45 47 49 50
8 10 12 5 11 16 16 15 13 17 20 16 10 9 7 6 7 5 7 8 6 5 4 4 5 5 8 9 9 8 13 19 23 35 43 40 39 44 47 48 48 48 47 47 48 47 47 47 46 44 42 43 43 43 43 42 42 41 41 43 45 46 48
11 12 14 10 4 6 12 17 16 15 21 21 14 10 9 8 8 5 8 10 8 6 6 5 4 7 9 10 14 16 18 21 20 30 39 35 32 37 43 46 48 48 48 47 47 48 48 46 46 45 44 43 44 44 44 43 42 42 41 41 43 44 46
11 10 11 12 7 2 2 11 15 11 16 23 18 10 9 9 7 8 10 10 5 4 3 4 6 12 14 14 20 22 22 24 25 27 30 29 29 33 38 43 46 47 48 48 47 47 46 44 44 44 43 44 44 44 43 42 42 41 41 42 43 44 46
5 7 11 14 8 1 2 3 7 4 7 19 19 13 10 8 7 7 9 10 3 2 9 11 11 16 18 15 16 20 21 22 24 24 25 27 30 33 34 37 41 43 44 45 45 45 42 40 41 41 40 42 43 43 42 41 41 41 41 42 43 45 46
3 3 8 13 9 5 6 4 2 3 3 9 16 13 9 6 8 8 9 10 4 3 10 11 9 12 15 13 13 19 23 26 27 26 24 24 26 28 30 30 33 36 38 39 39 37 35 36 37 38 38 38 40 41 41 40 40 41 42 42 43 45 46
4 4 7 10 8 6 7 3 0 2 4 4 10 14 12 6 7 7 6 6 7 6 10 10 10 12 11 11 15 21 24 26 29 28 23 20 20 22 23 23 25 28 28 27 27 26 28 32 35 36 37 36 36 37 38 38 38 39 41 42 43 44 45
5 8 8 5 4 4 3 1 1 2 6 6 3 5 10 7 4 6 9 6 4 9 11 9 11 12 12 16 22 26 26 26 29 29 25 19 18 18 18 18 19 21 20 20 20 21 25 29 31 32 33 33 32 32 33 35 37 38 40 41 43 43 44
5 7 5 2 1 5 2 3 4 7 8 5 9 14 10 8 7 3 14 13 6 9 12 12 14 17 22 28 32 33 32 31 32 31 28 25 24 23 22 19 18 17 16 16 16 16 18 20 22 25 27 28 28 28 29 32 34 36 38 40 42 42 42
4 3 1 2 3 6 1 6 10 14 11 6 6 15 17 18 18 11 6 13 12 11 14 17 20 25 31 34 35 36 35 33 33 31 29 29 28 26 25 23 20 18 16 14 12 11 12 12 13 17 21 23 25 26 28 30 32 34 36 38 40 42 42
3 4 3 3 3 5 2 7 11 12 11 8 3 9 11 18 20 18 10 4 12 14 15 19 25 29 29 23 23 30 31 29 28 28 28 27 24 21 21 21 19 16 15 13 11 11 13 12 12 13 14 17 22 25 27 29 30 31 34 37 38 40 42
3 4 3 2 2 2 4 11 17 16 17 12 4 12 10 17 20 21 16 8 9 11 13 17 22 24 20 9 11 22 26 25 26 25 24 24 22 18 16 15 14 12 10 10 8 7 9 11 12 13 13 13 16 20 23 27 29 30 32 36 37 38 40
4 3 2 3 2 1 8 17 19 22 26 17 3 11 8 12 18 23 20 15 14 11 13 17 17 15 10 4 7 18 22 23 25 24 22 21 19 17 15 14 14 12 9 10 9 5 4 6 10 13 15 16 15 16 17 22 27 30 31 33 35 37 38
4 3 2 3 0 3 13 17 18 27 30 15 3 8 5 10 17 23 22 19 19 18 20 21 14 9 8 6 10 18 21 22 24 23 23 20 16 16 17 14 12 10 7 7 6 2 1 2 5 9 15 18 18 16 15 16 21 27 31 31 30 31 34
4 3 3 2 1 4 13 16 22 31 24 7 7 6 4 11 14 21 24 22 23 24 23 20 14 13 16 16 18 22 24 24 24 22 21 19 15 16 17 14 11 9 7 6 5 4 4 3 6 9 12 16 20 20 18 16 16 18 23 29 29 28 28
3 2 3 3 0 7 17 20 25 28 14 3 4 3 6 11 14 21 24 24 25 26 23 22 19 20 23 23 23 24 25 25 25 22 20 19 15 14 14 14 12 10 10 11 9 6 6 7 7 9 11 12 16 18 17 18 18 15 14 19 25 28 28
2 1 3 3 1 9 21 20 17 17 9 2 1 4 10 17 20 21 23 25 27 27 24 23 22 22 23 24 23 23 23 24 23 20 19 18 16 12 11 12 11 8 9 11 8 5 8 10 8 7 10 10 10 12 14 17 20 19 16 14 16 22 27
3 2 3 3 2 8 15 14 9 10 11 7 7 8 12 18 21 22 23 25 27 27 25 24 24 24 24 24 23 23 23 22 21 20 17 15 13 12 12 12 7 4 6 8 7 7 9 10 7 4 6 7 6 9 13 15 17 19 19 18 15 16 21
1 1 3 3 7 10 11 12 9 12 18 16 14 15 15 17 20 22 22 24 26 26 25 25 26 27 27 25 24 24 22 21 20 19 17 14 11 11 12 12 7 2 4 6 7 7 7 6 3 2 2 4 6 9 12 13 14 15 17 18 17 14 16
2 3 7 5 6 13 15 13 11 13 15 14 15 17 16 16 17 19 20 22 23 23 24 25 25 26 26 25 25 24 23 22 20 18 17 14 10 9 12 12 9 4 2 5 7 6 5 3 1 1 2 3 5 8 10 10 10 12 14 16 15 12 14
4 3 3 5 11 15 15 13 13 12 11 10 13 14 14 13 15 16 17 19 20 20 22 23 23 23 23 23 23 22 22 21 20 18 19 17 11 8 10 11 9 6 4 5 6 6 7 5 3 3 3 4 4 5 7 8 9 11 12 13 12 12 14
4 4 7 13 17 16 13 13 13 12 10 10 10 11 12 11 12 12 14 16 18 18 18 19 20 21 22 21 21 20 19 19 18 17 17 17 12 8 9 9 9 8 6 5 5 7 8 5 3 3 3 3 3 4 5 7 9 11 12 11 12 13 15
5 4 6 12 13 11 13 16 17 18 19 14 10 10 10 11 12 12 11 13 14 14 15 16 17 18 19 19 19 19 17 18 18 16 15 15 12 9 8 8 8 9 7 5 5 6 4 3 3 3 4 4 4 4 3 3 6 9 12 13 13 14 15
5 5 9 14 11 7 14 20 21 22 24 20 14 12 11 11 12 12 11 11 12 13 14 15 15 15 16 16 18 19 18 17 17 16 15 13 10 9 10 9 8 9 7 5 5 3 2 4 6 4 4 4 4 3 2 4 4 6 9 12 13 14 14
7 11 19 23 16 10 15 24 26 24 24 23 20 17 14 11 11 12 11 12 14 16 16 15 14 14 15 16 17 18 19 17 16 14 14 13 10 10 11 9 7 6 4 4 3 2 2 6 7 7 6 4 2 2 3 4 4 5 7 9 11 13 14
13 19 26 29 25 21 24 28 28 26 25 25 24 20 15 13 13 13 13 13 15 15 15 15 14 14 15 17 18 18 18 18 16 14 13 12 11 10 9 8 6 4 2 1 1 1 2 2 4 7 6 6 5 3 2 3 3 5 7 8 9 12 12
20 25 30 30 30 33 35 31 26 25 24 24 24 23 20 17 15 15 15 14 12 11 12 14 17 18 18 18 18 17 17 18 18 16 14 13 11 10 9 8 7 4 5 5 4 4 4 2 2 2 3 6 6 3 3 4 2 3 6 8 10 12 13
Wind_Direction
214 194 200 207 200 184 168 193 208 191 188 192 151 158 166 168 222 211 213 238 252 261 255 221 214 234 246 229 212 185 162 166 170 169 171 175 177 178 181 185 189 192 193 194 196 197 197 198 200 201 203 204 205 206 207 209 210 211 211 211 212 213 215
222 203 194 208 215 197 160 189 198 148 188 224 170 152 187 189 220 217 207 221 214 210 237 230 215 219 226 223 220 205 168 166 169 171 174 175 175 178 181 184 189 193 194 196 197 199 199 201 203 202 202 204 206 207 208 209 210 212 213 214 214 214 215
214 204 192 205 218 213 192 170 167 166 208 213 180 192 191 184 213 224 216 219 207 198 201 209 217 216 215 212 208 206 182 168 169 169 172 174 172 175 179 182 187 192 195 197 198 200 202 203 204 203 202 204 206 208 210 211 214 216 216 216 215 215 215
194 199 193 197 208 212 209 173 165 189 214 182 174 205 197 183 203 213 221 220 211 212 196 195 209 211 206 205 200 201 187 171 172 167 166 171 172 174 178 182 188 192 195 198 199 200 201 202 203 202 202 205 207 208 210 213 216 217 217 217 216 216 216
183 195 200 194 190 195 208 196 174 185 196 165 175 210 219 210 214 203 218 235 232 232 201 190 199 202 200 197 187 193 183 168 171 170 167 171 173 175 179 184 190 193 196 198 199 199 200 201 202 202 202 205 207 208 210 213 215 217 217 218 217 217 217
192 197 193 185 184 190 205 207 180 178 185 178 178 205 218 212 236 225 201 240 251 255 222 189 192 195 193 186 173 182 183 170 170 173 174 173 174 177 180 186 191 194 197 198 198 198 199 199 200 201 202 204 206 208 211 213 215 217 218 218 218 218 218
233 204 184 175 182 190 202 214 202 177 181 189 180 192 203 200 234 248 234 259 262 272 265 193 183 178 168 172 170 168 187 177 171 174 176 173 176 181 183 187 191 195 198 198 197 198 199 198 198 199 201 203 206 208 211 212 214 217 218 219 219 219 219
272 238 183 170 179 190 201 213 213 193 185 188 184 178 178 182 218 230 248 281 265 286 306 146 151 149 143 163 174 176 195 178 169 172 175 171 176 184 186 187 190 193 194 194 195 197 198 199 199 200 201 203 205 208 210 212 214 216 218 219 219 220 221
241 257 193 171 179 190 202 204 208 218 195 178 187 209 169 179 216 207 203 254 250 287 337 54 103 128 138 162 184 189 191 169 165 170 172 172 176 182 185 187 188 189 189 191 193 196 198 200 202 202 202 203 204 207 210 212 214 216 218 219 219 220 221
213 228 204 185 181 185 203 198 198 218 214 183 183 200 165 184 215 205 195 227 256 296 354 46 70 110 142 166 182 180 164 154 163 171 172 174 175 177 180 182 184 186 187 190 194 196 198 201 203 203 203 203 204 206 210 212 214 216 217 218 219 220 221
248 253 249 198 172 173 197 202 192 204 218 206 178 172 195 188 180 201 206 186 219 286 346 70 101 117 124 116 111 115 112 129 157 171 175 177 173 170 174 177 180 184 186 190 194 196 197 199 200 202 203 203 203 204 208 211 213 216 217 218 219 221 222
260 265 286 261 172 172 187 202 200 193 205 220 200 178 195 164 141 207 223 164 160 249 262 231 203 136 108 102 98 98 105 120 154 174 178 178 170 166 171 174 177 181 183 188 192 194 196 197 199 201 202 203 203 204 207 210 211 215 217 218 219 220 222
292 279 285 286 239 173 181 200 211 194 193 213 218 191 181 158 142 199 203 159 161 216 231 243 212 130 114 114 108 101 105 114 141 166 169 167 164 165 170 172 176 179 182 185 188 191 194 196 199 203 203 203 204 204 206 209 211 214 217 218 219 219 221
301 305 290 280 277 15 125 200 214 207 192 203 216 210 186 168 161 186 174 151 166 208 132 76 92 108 104 105 107 99 96 106 123 142 148 149 157 166 169 172 177 181 184 186 189 192 194 196 199 202 202 202 203 204 206 208 210 213 215 218 219 219 221
297 325 310 296 288 332 5 223 219 257 206 198 208 217 203 178 174 180 141 113 93 80 94 83 79 92 88 82 90 91 84 88 104 123 129 133 148 161 167 173 178 181 183 187 192 195 195 197 198 199 200 201 202 204 206 208 211 212 214 217 220 221 221
319 318 288 292 308 312 290 268 231 337 314 206 201 207 213 184 171 168 119 109 138 124 97 91 72 73 78 72 71 79 77 74 81 97 108 118 133 148 157 167 176 180 183 187 191 193 194 198 199 199 200 202 203 205 207 209 212 213 214 217 220 222 221
330 320 280 287 320 303 266 263 276 26 349 271 198 199 217 195 155 159 139 150 181 142 96 92 84 70 71 81 79 79 78 75 76 80 87 103 121 134 144 155 166 174 180 183 187 192 197 200 201 201 202 203 204 207 210 211 213 214 215 217 220 223 223
310 320 313 319 343 287 230 109 340 30 20 9 97 176 230 222 159 140 134 137 152 119 102 99 101 88 81 83 76 70 69 69 70 68 69 86 108 119 128 140 153 161 167 171 179 189 193 195 197 199 202 205 208 211 212 213 214 215 217 218 220 224 225
293 320 342 35 294 264 207 100 16 14 7 6 62 50 14 345 350 77 126 122 107 104 100 97 101 93 81 71 62 59 62 66 69 69 67 75 87 94 101 112 126 136 143 149 158 170 179 185 192 197 202 207 211 215 216 215 215 217 219 220 222 224 227
300 336 349 179 247 280 249 75 33 11 345 315 63 51 24 9 0 1 101 124 113 98 92 93 96 89 75 63 53 54 62 66 67 65 65 73 82 85 89 97 108 117 125 131 136 147 162 173 185 198 208 213 215 218 219 218 219 220 221 222 223 225 227
351 340 280 225 274 312 12 43 13 349 318 304 86 82 25 9 9 0 350 105 110 100 97 98 95 83 71 58 44 46 55 62 65 65 65 70 76 78 83 89 95 105 122 131 136 152 167 173 175 183 198 211 217 220 222 222 222 222 223 225 225 225 227
352 332 301 276 285 298 2 350 342 330 312 308 93 97 36 3 7 4 354 11 74 92 104 104 96 80 67 53 33 40 48 55 58 62 64 62 61 63 68 74 75 79 95 100 108 147 175 190 197 193 188 195 208 217 222 225 224 222 223 226 227 228 228
315 315 348 340 288 74 356 341 337 328 315 308 62 87 36 350 355 4 7 16 32 50 72 78 83 79 70 67 39 40 48 53 52 56 59 56 53 49 44 52 63 66 75 85 93 120 158 188 209 213 208 206 211 215 218 222 223 224 224 224 226 229 230
302 295 323 342 107 21 345 339 338 327 315 309 62 77 26 332 348 5 14 21 26 34 52 61 65 72 71 68 50 47 52 55 53 54 56 54 50 42 32 34 49 54 59 78 93 105 84 190 218 225 220 220 224 227 224 219 218 223 228 228 227 228 230
319 318 334 343 123 2 341 342 347 338 326 335 71 74 287 300 343 16 20 22 26 30 44 58 58 57 59 55 53 53 52 50 50 51 53 56 59 53 39 22 15 20 16 16 18 350 324 284 245 239 232 229 230 232 235 231 222 222 230 232 231 229 229
311 349 357 338 69 356 344 348 0 2 3 65 61 9 304 324 7 27 22 22 25 24 38 55 58 57 56 51 50 51 48 46 45 43 44 47 50 57 47 22 6 4 355 353 2 350 308 287 264 248 242 240 239 237 238 238 232 228 230 231 231 231 230
336 41 13 13 64 344 343 351 12 20 31 120 290 343 2 13 25 28 22 22 24 21 29 42 48 52 51 47 46 46 44 43 39 36 40 42 42 47 37 11 6 18 4 350 353 339 307 307 304 268 248 249 250 243 239 237 234 230 227 226 226 228 230
10 52 39 38 245 307 347 17 37 7 7 44 67 43 24 20 23 24 21 19 20 22 25 27 32 38 40 41 43 40 38 39 34 30 31 32 37 42 23 358 354 46 38 1 330 307 308 318 333 311 254 242 234 233 233 233 230 226 224 224 222 222 226
24 281 265 270 273 302 354 36 45 9 8 25 47 49 36 24 21 24 23 18 16 20 23 22 24 27 28 32 36 34 32 29 26 26 22 18 26 32 16 357 339 340 49 14 332 308 307 312 330 347 276 229 215 222 228 233 232 224 221 224 223 218 221
15 284 248 248 322 337 352 12 24 19 14 17 34 45 41 29 24 25 22 17 16 18 20 20 21 21 20 24 28 28 26 20 16 16 11 4 6 18 14 3 346 318 352 8 344 318 310 302 267 282 265 225 221 224 223 228 230 223 220 223 221 216 216
11 332 295 342 341 328 330 344 351 356 9 27 37 37 31 26 28 29 24 18 14 15 17 17 18 19 17 17 19 21 22 18 11 6 1 353 349 3 7 355 343 337 343 354 348 328 319 310 273 271 274 251 250 247 234 229 222 214 214 214 206 204 209
345 307 310 323 316 304 307 324 329 338 4 33 32 19 18 24 23 21 22 18 14 13 12 12 15 17 16 13 11 11 13 13 7 360 356 350 342 347 356 344 335 339 337 320 316 327 332 330 309 316 329 310 300 302 277 252 229 213 209 200 186 187 197
317 287 312 333 328 316 322 334 342 349 354 3 11 4 6 17 16 9 13 12 8 6 4 2 5 10 12 10 7 2 1 3 3 359 352 345 338 344 354 340 320 325 329 309 302 319 344 7 8 42 70 53 10 344 303 246 220 210 208 200 186 180 184
317 320 351 359 354 325 317 326 337 342 339 339 346 345 345 358 4 3 6 4 354 347 346 349 353 358 2 5 3 358 353 350 353 353 347 337 330 339 351 340 314 313 321 314 311 331 35 18 7 38 80 50 4 325 230 188 182 196 199 195 191 187 185
306 321 337 340 333 313 310 318 325 327 324 323 328 332 336 342 342 345 353 351 339 333 334 340 346 349 351 352 353 352 349 343 341 341 340 332 317 319 337 341 320 305 314 332 345 20 24 11 28 62 74 59 57 206 209 192 180 184 183 183 190 193 189
311 316 323 323 316 305 303 309 315 314 308 304 306 311 318 323 324 326 330 328 327 328 330 334 337 337 336 337 338 340 341 339 333 326 324 320 307 303 318 327 311 281 251 288 341 207 252 358 64 92 89 83 93 123 198 206 188 180 177 172 178 187 188
309 308 309 309 304 298 297 300 302 299 295 295 295 295 297 302 306 311 313 312 315 322 326 326 327 326 325 326 328 329 330 331 329 321 312 307 301 302 308 307 300 265 213 215 218 206 203 188 134 131 97 78 72 82 171 204 207 166 167 164 161 167 171